Skip Page Navigation
NASA JPL Caltech
NASA Logo - Jet Propulsion Laboratory + View the NASA Portal
+ Center for Near-Earth Object Studies
JPL Home Earth Solar System Stars & Galaxies Technology
JPL Solar System Dynamics
BODIES ORBITS EPHEMERIDES TOOLS PHYSICAL DATA DISCOVERY FAQ SITE MAP
JPL Small-Body Database Browser
Search: [ help ]  
30560 (2001 OO71)
Classification: Main-belt Asteroid          SPK-ID: 2030560
Ephemeris | Orbit Diagram | Orbital Elements | Mission Design | Physical Parameters | Discovery Circumstances | Close-Approach Data ]

[ show orbit diagram ]
Orbital Elements at Epoch 2459396.5 (2021-Jul-01.0) TDB
Reference: JPL 23 (heliocentric ecliptic J2000)
 Element Value Uncertainty (1-sigma)   Units 
e .2209072642271959 3.8657e-08  
a 2.205814037948833 7.3765e-09 au
q 1.718533693431612 8.7841e-08 au
i 7.691504227179182 3.1856e-06 deg
node 130.135887487433 2.6477e-05 deg
peri 240.3779388677384 2.7509e-05 deg
M 8.398540272521119 1.0515e-05 deg
tp 2459368.584007074776
(2021-Jun-03.08400707)
3.4844e-05 TDB
period 1196.607639777852
3.28
6.0024e-06
1.643e-08
d
yr
n .3008504943749427 1.5091e-09 deg/d
Q 2.693094382466054 9.006e-09 au
  Orbit Determination Parameters
   # obs. used (total)      972  
   data-arc span      10628 days (29.10 yr)  
   first obs. used      1991-08-03  
   last obs. used      2020-09-07  
   planetary ephem.      DE441  
   SB-pert. ephem.      SB441-N16  
   condition code      0  
   norm. resid. RMS      .54395  
   source      ORB  
   producer      Otto Matic  
   solution date      2021-Apr-13 06:37:43  

Additional Information
 Earth MOID = .731852 au 
 Jupiter MOID = 2.79226 au 
 T_jup = 3.618 
[ hide covariance matrix ]
Orbital Elements at Epoch 2457254.5 (2015-Aug-20.0) TDB
Reference: JPL 23 (heliocentric ecliptic J2000)
 Element Value Uncertainty (1-sigma)   Units 
e .2205002451926106 3.8528e-08  
q 1.719740394603934 8.7435e-08 au
tp 2456974.478113161543
(2014-Nov-12.97811316)
2.7029e-05 TDB
node 130.200015154755 2.6446e-05 deg
peri 240.2525741466758 2.75e-05 deg
i 7.694500717077383 3.1871e-06 deg
  Orbit Determination Parameters
   # obs. used (total)      972  
   data-arc span      10628 days (29.10 yr)  
   first obs. used      1991-08-03  
   last obs. used      2020-09-07  
   planetary ephem.      DE441  
   SB-pert. ephem.      SB441-N16  
   condition code      0  
   norm. resid. RMS      .54395  
   source      ORB  
   producer      Otto Matic  
   solution date      2021-Apr-13 06:37:43  

Additional Information
 Jupiter MOID = 2.79226 au 
 T_jup = 3.618 
Orbit Covariance (6×6)
  e q tp node peri i
e 1.484371017214164E-15 -3.362739694827429E-15 -3.482892464535069E-13 1.653768394471597E-14 -7.88269011230102E-14 -4.400354725832152E-16
q -3.362739694827429E-15 7.644947821803841E-15 8.530420894092546E-13 -3.736844121831651E-14 1.972299807712158E-13 1.282846029628217E-15
tp -3.482892464535069E-13 8.530420894092546E-13 7.305771960268389E-10 -7.278881829681661E-12 2.168380845577123E-10 1.690465864556976E-12
node 1.653768394471597E-14 -3.736844121831651E-14 -7.278881829681661E-12 6.994003034442917E-10 -6.942635721562937E-10 1.282811854915656E-11
peri -7.88269011230102E-14 1.972299807712158E-13 2.168380845577123E-10 -6.942635721562937E-10 7.562363773655818E-10 -1.221464898555037E-11
i -4.400354725832152E-16 1.282846029628217E-15 1.690465864556976E-12 1.282811854915656E-11 -1.221464898555037E-11 1.015788527762851E-11

Ephemeris | Orbit Diagram | Orbital Elements | Mission Design | Physical Parameters | Discovery Circumstances | Close-Approach Data ]

Physical Parameter Table
Parameter Symbol Value Units Sigma Reference Notes
absolute magnitude H 15.86   n/a E2021B10  

30560 (2001 OO71)          Discovered 2001-Jul-20 by JPL/GEODSS NEAT at Palomar
Reference: 20011002/Numbers.arcLast Updated: 2004-04-19

[ show close-approach data ]
Alternate Designations
 2001 OO71 = 1991 PA20 = 1998 XQ26 
Ephemeris | Orbit Diagram | Orbital Elements | Mission Design | Physical Parameters | Discovery Circumstances | Close-Approach Data ]
ABOUT SSD CREDITS/AWARDS PRIVACY/COPYRIGHT GLOSSARY LINKS
FirstGov 2021-Jul-28 21:50 UT
(server date/time)  
NASA Home Page
Site Manager:   Ryan S. Park
Webmaster  Alan B. Chamberlin